"Period start","avg(HW err(1)/warn(2) (#))","avg(Visibility (m))","avg(Weather code (#))","avg(Precip intensity (mm/h))","min(HW err(1)/warn(2) (#))","max(HW err(1)/warn(2) (#))","std(HW err(1)/warn(2) (#))","med(HW err(1)/warn(2) (#))","min(Visibility (m))","max(Visibility (m))","std(Visibility (m))","med(Visibility (m))","min(Weather code (#))","max(Weather code (#))","std(Weather code (#))","med(Weather code (#))","min(Precip intensity (mm/h))","max(Precip intensity (mm/h))","std(Precip intensity (mm/h))","med(Precip intensity (mm/h))"
2017-07-12 00:00:00,0,48728,0,0.00,0,0,0,0,44044,50000,1855,49659,0,0,0,0,0.00,0.00,0.00,0.00
2017-07-12 00:10:00,0,49890,0,0.00,0,0,0,0,49255,50000,225,50000,0,0,0,0,0.00,0.00,0.00,0.00
2017-07-12 00:20:00,0,49030,0,0.00,0,0,0,0,45932,50000,1395,50000,0,0,0,0,0.00,0.00,0.00,0.00
2017-07-12 00:30:00,0,49175,0,0.00,0,0,0,0,44675,50000,1653,50000,0,0,0,0,0.00,0.00,0.00,0.00
2017-07-12 00:40:00,0,50000,0,0.00,0,0,0,0,50000,50000,0,50000,0,0,0,0,0.00,0.00,0.00,0.00
2017-07-12 00:50:00,0,50000,0,0.00,0,0,0,0,50000,50000,0,50000,0,0,0,0,0.00,0.00,0.00,0.00
2017-07-12 01:00:00,0,50000,0,0.00,0,0,0,0,50000,50000,0,50000,0,0,0,0,0.00,0.00,0.00,0.00
2017-07-12 01:10:00,0,49722,0,0.00,0,0,0,0,47223,50000,833,50000,0,0,0,0,0.00,0.00,0.00,0.00
2017-07-12 01:20:00,0,45995,0,0.00,0,0,0,0,37039,50000,4360,47194,0,0,0,0,0.00,0.00,0.00,0.00
2017-07-12 01:30:00,0,50000,0,0.00,0,0,0,0,50000,50000,0,50000,0,0,0,0,0.00,0.00,0.00,0.00
2017-07-12 01:40:00,0,50000,0,0.00,0,0,0,0,50000,50000,0,50000,0,0,0,0,0.00,0.00,0.00,0.00
2017-07-12 01:50:00,0,50000,0,0.00,0,0,0,0,50000,50000,0,50000,0,0,0,0,0.00,0.00,0.00,0.00
2017-07-12 02:00:00,0,50000,0,0.00,0,0,0,0,50000,50000,0,50000,0,0,0,0,0.00,0.00,0.00,0.00
2017-07-12 02:10:00,0,49910,0,0.00,0,0,0,0,49101,50000,270,50000,0,0,0,0,0.00,0.00,0.00,0.00
2017-07-12 02:20:00,0,50000,0,0.00,0,0,0,0,50000,50000,0,50000,0,0,0,0,0.00,0.00,0.00,0.00
2017-07-12 02:30:00,0,49994,0,0.00,0,0,0,0,49937,50000,19,50000,0,0,0,0,0.00,0.00,0.00,0.00
2017-07-12 02:40:00,0,50000,0,0.00,0,0,0,0,50000,50000,0,50000,0,0,0,0,0.00,0.00,0.00,0.00
2017-07-12 02:50:00,0,48725,0,0.00,0,0,0,0,43215,50000,2557,50000,0,0,0,0,0.00,0.00,0.00,0.00
2017-07-12 03:00:00,0,42019,0,0.00,0,0,0,0,29299,48136,5838,44238,0,0,0,0,0.00,0.00,0.00,0.00
2017-07-12 03:10:00,0,21346,0,0.00,0,0,0,0,15445,27232,3715,21930,0,0,0,0,0.00,0.00,0.00,0.00
2017-07-12 03:20:00,0,15008,0,0.00,0,0,0,0,12284,19465,1928,14303,0,0,0,0,0.00,0.00,0.00,0.00
2017-07-12 03:30:00,2,23564,0,0.00,2,2,0,2,17632,30451,4178,23357,0,0,0,0,0.00,0.00,0.00,0.00
2017-07-12 03:40:00,2,48079,0,0.00,0,2,1,2,38852,50000,3653,50000,0,0,0,0,0.00,0.00,0.00,0.00
2017-07-12 03:50:00,2,49866,0,0.00,2,2,0,2,49251,50000,269,50000,0,0,0,0,0.00,0.00,0.00,0.00
2017-07-12 04:00:00,2,50000,0,0.00,2,2,0,2,50000,50000,0,50000,0,0,0,0,0.00,0.00,0.00,0.00
2017-07-12 04:10:00,2,49958,0,0.00,2,2,0,2,49582,50000,125,50000,0,0,0,0,0.00,0.00,0.00,0.00
2017-07-12 04:20:00,2,49616,0,0.00,2,2,0,2,48056,50000,746,50000,0,0,0,0,0.00,0.00,0.00,0.00
2017-07-12 04:30:00,2,25542,0,0.00,2,2,0,2,8871,50000,15977,16700,0,0,0,0,0.00,0.00,0.00,0.00
2017-07-12 04:40:00,2,8886,13,0.04,0,2,1,2,7051,10349,832,8864,0,61,24,0,0.00,0.30,0.09,0.00
2017-07-12 04:50:00,2,11641,30,0.06,2,2,0,2,9606,14018,1415,11492,10,51,20,30,0.00,0.25,0.08,0.03
2017-07-12 05:00:00,2,16686,1,0.00,0,2,1,2,13695,18704,1459,16984,0,10,3,0,0.00,0.00,0.00,0.00
2017-07-12 05:10:00,0,15370,0,0.00,0,0,0,0,11851,20673,2938,14304,0,0,0,0,0.00,0.00,0.00,0.00
2017-07-12 05:20:00,0,17166,0,0.00,0,0,0,0,12462,23764,4027,15897,0,0,0,0,0.00,0.00,0.00,0.00
2017-07-12 05:30:00,0,21555,0,0.00,0,0,0,0,16806,26348,2956,20946,0,0,0,0,0.00,0.00,0.00,0.00
2017-07-12 05:40:00,0,16499,0,0.00,0,0,0,0,8558,33537,7586,12519,0,0,0,0,0.00,0.00,0.00,0.00
2017-07-12 05:50:00,0,30814,0,0.00,0,0,0,0,13073,50000,12104,30040,0,0,0,0,0.00,0.00,0.00,0.00
2017-07-12 06:00:00,1,48725,0,0.00,0,2,1,0,44007,50000,2024,49911,0,0,0,0,0.00,0.00,0.00,0.00
2017-07-12 06:10:00,2,37602,0,0.00,0,2,1,2,13693,50000,15295,48422,0,0,0,0,0.00,0.00,0.00,0.00
2017-07-12 06:20:00,2,10970,0,0.00,2,2,0,2,8760,13391,1354,11002,0,0,0,0,0.00,0.00,0.00,0.00
2017-07-12 06:30:00,2,14244,0,0.00,2,2,0,2,11321,18012,1918,13820,0,0,0,0,0.00,0.00,0.00,0.00
2017-07-12 06:40:00,2,10945,0,0.00,2,2,0,2,8949,14189,1799,10485,0,0,0,0,0.00,0.00,0.00,0.00
2017-07-12 06:50:00,2,8564,17,0.03,2,2,0,2,6613,9230,817,8920,0,51,18,10,0.00,0.20,0.06,0.00
2017-07-12 07:00:00,2,9775,40,0.22,2,2,0,2,7680,11733,1350,10242,10,61,21,46,0.00,1.20,0.38,0.05
2017-07-12 07:10:00,2,9577,41,0.11,2,2,0,2,7996,11480,1119,9273,10,61,25,61,0.00,0.45,0.13,0.10
2017-07-12 07:20:00,2,18412,41,0.07,2,2,0,2,9850,36595,8749,14711,0,51,20,51,0.00,0.40,0.12,0.03
2017-07-12 07:30:00,2,43013,0,0.00,2,2,0,2,28850,50000,5884,43754,0,0,0,0,0.00,0.00,0.00,0.00
2017-07-12 07:40:00,2,41340,0,0.00,2,2,0,2,32803,49345,4829,41761,0,0,0,0,0.00,0.00,0.00,0.00
2017-07-12 07:50:00,2,39510,0,0.00,2,2,0,2,33590,47095,4597,38771,0,0,0,0,0.00,0.00,0.00,0.00
2017-07-12 08:00:00,2,29361,0,0.00,2,2,0,2,23938,40943,4649,28374,0,0,0,0,0.00,0.00,0.00,0.00
2017-07-12 08:10:00,2,33187,0,0.00,2,2,0,2,22631,37454,4353,33856,0,0,0,0,0.00,0.00,0.00,0.00
2017-07-12 08:20:00,2,34188,0,0.00,2,2,0,2,25844,48285,7323,31014,0,0,0,0,0.00,0.00,0.00,0.00
2017-07-12 08:30:00,2,46155,0,0.00,0,2,1,2,40236,50000,3501,46512,0,0,0,0,0.00,0.00,0.00,0.00
2017-07-12 08:40:00,1,47889,0,0.00,0,2,1,0,43904,50000,2198,48674,0,0,0,0,0.00,0.00,0.00,0.00
2017-07-12 08:50:00,0,45191,0,0.00,0,0,0,0,40204,49691,3391,44624,0,0,0,0,0.00,0.00,0.00,0.00
2017-07-12 09:00:00,0,46341,0,0.00,0,0,0,0,40495,50000,3418,47340,0,0,0,0,0.00,0.00,0.00,0.00
2017-07-12 09:10:00,0,45376,0,0.00,0,0,0,0,39490,50000,3617,45876,0,0,0,0,0.00,0.00,0.00,0.00
2017-07-12 09:20:00,0,47118,0,0.00,0,0,0,0,41724,50000,2993,47592,0,0,0,0,0.00,0.00,0.00,0.00
2017-07-12 09:30:00,0,42403,0,0.00,0,0,0,0,19154,50000,9554,45176,0,0,0,0,0.00,0.00,0.00,0.00
2017-07-12 09:40:00,0,49231,0,0.00,0,0,0,0,43421,50000,1952,50000,0,0,0,0,0.00,0.00,0.00,0.00
2017-07-12 09:50:00,0,47804,0,0.00,0,0,0,0,43462,50000,2349,48384,0,0,0,0,0.00,0.00,0.00,0.00
2017-07-12 10:00:00,0,48538,0,0.00,0,0,0,0,43601,50000,1938,49279,0,0,0,0,0.00,0.00,0.00,0.00
2017-07-12 10:10:00,0,47632,0,0.00,0,0,0,0,41471,50000,2762,48700,0,0,0,0,0.00,0.00,0.00,0.00
2017-07-12 10:20:00,0,49360,0,0.00,0,0,0,0,45659,50000,1278,50000,0,0,0,0,0.00,0.00,0.00,0.00
2017-07-12 10:30:00,0,49681,0,0.00,0,0,0,0,46812,50000,956,50000,0,0,0,0,0.00,0.00,0.00,0.00
2017-07-12 10:40:00,1,50000,0,0.00,0,2,1,0,50000,50000,0,50000,0,0,0,0,0.00,0.00,0.00,0.00
2017-07-12 10:50:00,2,48640,0,0.00,2,2,0,2,41567,50000,2700,50000,0,0,0,0,0.00,0.00,0.00,0.00
2017-07-12 11:00:00,2,32718,0,0.00,2,2,0,2,21451,50000,9782,28326,0,0,0,0,0.00,0.00,0.00,0.00
2017-07-12 11:10:00,2,35652,0,0.00,2,2,0,2,20462,47067,8044,37576,0,0,0,0,0.00,0.00,0.00,0.00
2017-07-12 11:20:00,2,38636,0,0.00,2,2,0,2,18551,50000,10469,41226,0,0,0,0,0.00,0.00,0.00,0.00
2017-07-12 11:30:00,2,49178,0,0.00,2,2,0,2,46181,50000,1258,49910,0,0,0,0,0.00,0.00,0.00,0.00
2017-07-12 11:40:00,2,49820,0,0.00,2,2,0,2,48205,50000,538,50000,0,0,0,0,0.00,0.00,0.00,0.00
2017-07-12 11:50:00,2,50000,0,0.00,2,2,0,2,50000,50000,0,50000,0,0,0,0,0.00,0.00,0.00,0.00
2017-07-12 12:00:00,2,50000,0,0.00,2,2,0,2,50000,50000,0,50000,0,0,0,0,0.00,0.00,0.00,0.00
2017-07-12 12:10:00,2,50000,0,0.00,2,2,0,2,50000,50000,0,50000,0,0,0,0,0.00,0.00,0.00,0.00
2017-07-12 12:20:00,2,50000,0,0.00,2,2,0,2,50000,50000,0,50000,0,0,0,0,0.00,0.00,0.00,0.00
2017-07-12 12:30:00,2,49936,0,0.00,2,2,0,2,49356,50000,193,50000,0,0,0,0,0.00,0.00,0.00,0.00
2017-07-12 12:40:00,2,49906,0,0.00,2,2,0,2,49064,50000,281,50000,0,0,0,0,0.00,0.00,0.00,0.00
2017-07-12 12:50:00,2,50000,0,0.00,2,2,0,2,50000,50000,0,50000,0,0,0,0,0.00,0.00,0.00,0.00
2017-07-12 13:00:00,2,50000,0,0.00,2,2,0,2,50000,50000,0,50000,0,0,0,0,0.00,0.00,0.00,0.00
2017-07-12 13:10:00,2,50000,0,0.00,2,2,0,2,50000,50000,0,50000,0,0,0,0,0.00,0.00,0.00,0.00
2017-07-12 13:20:00,2,50000,0,0.00,2,2,0,2,50000,50000,0,50000,0,0,0,0,0.00,0.00,0.00,0.00
2017-07-12 13:30:00,2,50000,0,0.00,2,2,0,2,50000,50000,0,50000,0,0,0,0,0.00,0.00,0.00,0.00
2017-07-12 13:40:00,2,49923,0,0.00,2,2,0,2,49233,50000,230,50000,0,0,0,0,0.00,0.00,0.00,0.00
2017-07-12 13:50:00,2,50000,0,0.00,2,2,0,2,50000,50000,0,50000,0,0,0,0,0.00,0.00,0.00,0.00
2017-07-12 14:00:00,2,50000,0,0.00,2,2,0,2,50000,50000,0,50000,0,0,0,0,0.00,0.00,0.00,0.00
2017-07-12 14:10:00,2,49961,0,0.00,2,2,0,2,49683,50000,95,50000,0,0,0,0,0.00,0.00,0.00,0.00
2017-07-12 14:20:00,2,50000,0,0.00,2,2,0,2,50000,50000,0,50000,0,0,0,0,0.00,0.00,0.00,0.00
2017-07-12 14:30:00,2,45985,0,0.00,2,2,0,2,35220,50000,4507,47690,0,0,0,0,0.00,0.00,0.00,0.00
2017-07-12 14:40:00,2,44253,0,0.00,2,2,0,2,33196,50000,5296,45648,0,0,0,0,0.00,0.00,0.00,0.00
2017-07-12 14:50:00,2,43000,0,0.00,2,2,0,2,26812,50000,7575,44672,0,0,0,0,0.00,0.00,0.00,0.00
2017-07-12 15:00:00,2,27605,0,0.00,2,2,0,2,17519,43126,7443,27136,0,0,0,0,0.00,0.00,0.00,0.00
2017-07-12 15:10:00,2,35244,0,0.00,2,2,0,2,23277,49791,7897,34280,0,0,0,0,0.00,0.00,0.00,0.00
2017-07-12 15:20:00,2,31075,0,0.00,2,2,0,2,20807,50000,8691,31118,0,0,0,0,0.00,0.00,0.00,0.00
2017-07-12 15:30:00,2,45592,0,0.00,2,2,0,2,29994,50000,6222,48530,0,0,0,0,0.00,0.00,0.00,0.00
2017-07-12 15:40:00,2,29510,0,0.00,2,2,0,2,11815,48713,14761,31332,0,0,0,0,0.00,0.00,0.00,0.00
2017-07-12 15:50:00,2,12827,0,0.00,2,2,0,2,10267,16353,1913,12549,0,0,0,0,0.00,0.00,0.00,0.00
2017-07-12 16:00:00,2,8963,2,0.00,2,2,0,2,6853,12909,1993,8098,0,10,4,0,0.00,0.00,0.00,0.00
2017-07-12 16:10:00,2,17169,1,0.00,2,2,0,2,11160,24382,4538,17189,0,10,3,0,0.00,0.00,0.00,0.00
2017-07-12 16:20:00,2,20727,0,0.00,2,2,0,2,8154,29278,7181,22722,0,0,0,0,0.00,0.00,0.00,0.00
2017-07-12 16:30:00,2,46470,0,0.00,2,2,0,2,25742,50000,7516,50000,0,0,0,0,0.00,0.00,0.00,0.00
2017-07-12 16:40:00,2,23047,0,0.00,2,2,0,2,9625,50000,13810,17406,0,0,0,0,0.00,0.00,0.00,0.00
2017-07-12 16:50:00,2,40650,0,0.00,2,2,0,2,17326,49427,11767,46296,0,0,0,0,0.00,0.00,0.00,0.00
2017-07-12 17:00:00,2,20443,0,0.00,2,2,0,2,8988,45459,11814,15296,0,0,0,0,0.00,0.00,0.00,0.00
2017-07-12 17:10:00,2,15445,0,0.00,2,2,0,2,9104,25858,4701,14858,0,0,0,0,0.00,0.00,0.00,0.00
2017-07-12 17:20:00,2,19130,0,0.00,2,2,0,2,14657,27081,4159,18034,0,0,0,0,0.00,0.00,0.00,0.00
2017-07-12 17:30:00,2,15919,0,0.00,2,2,0,2,6957,25053,5516,15040,0,0,0,0,0.00,0.00,0.00,0.00
2017-07-12 17:40:00,2,5864,7,0.00,2,2,0,2,5197,6345,316,5942,0,10,5,10,0.00,0.00,0.00,0.00
2017-07-12 17:50:00,2,7151,10,0.00,2,2,0,2,5202,9048,1231,6934,10,10,0,10,0.00,0.00,0.00,0.00
2017-07-12 18:00:00,2,7930,10,0.00,2,2,0,2,6811,10123,989,7654,10,10,0,10,0.00,0.00,0.00,0.00
2017-07-12 18:10:00,2,6906,10,0.00,2,2,0,2,5598,9359,1051,6634,10,10,0,10,0.00,0.00,0.00,0.00
2017-07-12 18:20:00,2,7220,10,0.00,2,2,0,2,5828,9097,960,7512,10,10,0,10,0.00,0.00,0.00,0.00
2017-07-12 18:30:00,2,6752,10,0.00,2,2,0,2,5712,8520,902,6532,10,10,0,10,0.00,0.00,0.00,0.00
2017-07-12 18:40:00,2,5292,10,0.00,2,2,0,2,4600,6149,485,5252,10,10,0,10,0.00,0.00,0.00,0.00
2017-07-12 18:50:00,2,7636,10,0.00,2,2,0,2,6405,8991,800,7526,10,10,0,10,0.00,0.00,0.00,0.00
2017-07-12 19:00:00,2,7595,10,0.00,2,2,0,2,5276,11244,1745,7300,10,10,0,10,0.00,0.00,0.00,0.00
2017-07-12 19:10:00,2,5095,10,0.00,2,2,0,2,4233,5954,558,5242,10,10,0,10,0.00,0.00,0.00,0.00
2017-07-12 19:20:00,2,4730,10,0.00,2,2,0,2,4083,5322,345,4688,10,10,0,10,0.00,0.00,0.00,0.00
2017-07-12 19:30:00,2,4700,24,0.07,2,2,0,2,4109,5593,532,4491,10,51,18,10,0.00,0.25,0.09,0.00
2017-07-12 19:40:00,2,5898,35,0.06,2,2,0,2,5039,7798,840,5566,10,51,20,51,0.00,0.20,0.07,0.03
2017-07-12 19:50:00,2,4990,10,0.00,2,2,0,2,4358,5508,429,5056,10,10,0,10,0.00,0.00,0.00,0.00
2017-07-12 20:00:00,2,6514,10,0.00,2,2,0,2,5702,7325,583,6556,10,10,0,10,0.00,0.00,0.00,0.00
2017-07-12 20:10:00,2,6882,10,0.00,2,2,0,2,5805,7355,442,6924,10,10,0,10,0.00,0.00,0.00,0.00
2017-07-12 20:20:00,2,6189,10,0.00,2,2,0,2,4920,7194,661,6193,10,10,0,10,0.00,0.00,0.00,0.00
2017-07-12 20:30:00,2,6067,10,0.00,2,2,0,2,5242,6427,350,6180,10,10,0,10,0.00,0.00,0.00,0.00
2017-07-12 20:40:00,2,6228,10,0.00,2,2,0,2,5425,7798,768,5908,10,10,0,10,0.00,0.00,0.00,0.00
2017-07-12 20:50:00,2,6903,10,0.00,2,2,0,2,5390,8885,1259,6944,10,10,0,10,0.00,0.00,0.00,0.00
2017-07-12 21:00:00,2,9003,10,0.00,2,2,0,2,7852,12557,1309,8651,10,10,0,10,0.00,0.00,0.00,0.00
2017-07-12 21:10:00,2,9906,10,0.00,2,2,0,2,7789,13209,1555,9878,10,10,0,10,0.00,0.00,0.00,0.00
2017-07-12 21:20:00,2,7238,10,0.00,2,2,0,2,6403,8003,443,7203,10,10,0,10,0.00,0.00,0.00,0.00
2017-07-12 21:30:00,2,10763,10,0.00,2,2,0,2,8124,15332,2590,9501,10,10,0,10,0.00,0.00,0.00,0.00
2017-07-12 21:40:00,2,12811,3,0.00,2,2,0,2,7365,18026,3511,12808,0,10,5,0,0.00,0.00,0.00,0.00
2017-07-12 21:50:00,2,8606,7,0.00,2,2,0,2,6705,13680,2024,8154,0,10,5,10,0.00,0.00,0.00,0.00
2017-07-12 22:00:00,2,10468,11,0.00,2,2,0,2,5335,16073,3416,10028,0,40,10,10,0.00,0.00,0.00,0.00
2017-07-12 22:10:00,2,6072,46,0.18,2,2,0,2,5202,8163,844,5714,10,51,12,51,0.00,0.30,0.09,0.20
2017-07-12 22:20:00,2,9550,10,0.00,2,2,0,2,6244,12652,2320,10307,10,10,0,10,0.00,0.00,0.00,0.00
2017-07-12 22:30:00,2,7047,30,0.06,2,2,0,2,4955,11334,1689,7116,10,61,25,10,0.00,0.25,0.09,0.00
2017-07-12 22:40:00,2,8135,38,0.11,2,2,0,2,5403,11083,1685,7814,10,61,23,51,0.00,0.35,0.12,0.08
2017-07-12 22:50:00,2,12217,40,0.03,2,2,0,2,6634,22653,5610,9991,10,61,20,51,0.00,0.15,0.05,0.00
2017-07-12 23:00:00,2,10867,10,0.00,2,2,0,2,7776,14837,2036,11104,10,10,0,10,0.00,0.00,0.00,0.00
2017-07-12 23:10:00,2,12901,2,0.00,2,2,0,2,8739,18506,3496,11998,0,10,4,0,0.00,0.00,0.00,0.00
2017-07-12 23:20:00,2,15544,0,0.00,2,2,0,2,11155,21257,3584,14412,0,0,0,0,0.00,0.00,0.00,0.00
2017-07-12 23:30:00,2,6393,5,0.00,2,2,0,2,4150,10568,1761,6078,0,10,5,5,0.00,0.00,0.00,0.00
2017-07-12 23:40:00,2,5032,57,0.72,2,2,0,2,3696,6244,917,5220,40,67,11,61,0.00,3.05,1.03,0.23
2017-07-12 23:50:00,2,27854,20,0.02,2,2,0,2,5308,50000,18328,26515,10,61,20,10,0.00,0.10,0.04,0.00
